Location: Kershaw
(34.5481°N, 80.5823°W)
Time: 09:31:39
(UTC+00:00)

Altair - Pass Details

Date: 04 October 2022
Orbit: 1501 x 1682 km, 47.2° (Epoch: 30 November)

Event Time Altitude Azimuth Distance (km) Brightness Sun altitude
Rises 18:21:12 0° 296° (WNW) 4,933 10.2 47.5°
Reaches altitude 10° 18:25:07 10° 284° (WNW) 3,945 9.9 47.2°
Maximum altitude 18:32:44 25° 235° (SW) 2,916 10.3 46.4°
Drops below altitude 10° 18:40:18 10° 185° (S) 3,890 10.5 45.6°
Sets 18:44:11 0° 172° (S) 4,851 10.6 45.2°
